Flag for U.S.A. Weather past 2 weeks in Irvine, California, U.S.A.

Now
71 °F

Passing clouds.


Feels Like: 73 °F
Forecast: 68 / 86 °F
Wind: 5 mph from Southwest

Location: John Wayne Airport-Orange County Airport

Current Time: Jul 12, 2014 at 11:32:36 PM

Latest Report: Jul 12, 2014 at 10:53 PM


Visibility: 10 mi

Pressure: 29.94 "Hg

Humidity: 76%

Dew point: 63 °F

Location of IrvineLocation

Historic Weather in Irvine — Graph

°F

Irvine temperature yesterday

Maximum temperature yesterday: 80 °F (at 2:53 PM)
Minimum temperature yesterday: 69 °F (at 1:53 AM)
Average temperature yesterday: 74 °F

Past Weeks' High & Low Weather Summary

 TemperatureHumidityPressure
High87 °F (Jul 6, 1:53 PM)84% (Jul 4, 4:53 AM)30.01 "Hg (Jul 4, 4:53 AM)
Low68 °F (Jun 28, 4:53 AM)27% (Jul 6, 5:53 PM)29.81 "Hg (Jun 28, 4:53 AM)
Average73 °F66%29.90 "Hg
* Reported Jun 27 9:53 PM — Jul 12 9:53 PM, Irvine, Weather by CustomWeather, © 2014

Note: Actual official high and low records may vary slightly from our data, if they occured in-between our weather recording intervals... More about our weather records

Advertising

Irvine weather history for previous 24 hours

 ConditionsComfort  
Time TempWeatherWind HumidityBarometerVisibility
9:53 PM
Jul 12
71 °FPassing clouds.3 mph76%29.94 "Hg10 mi
8:53 PM72 °FPartly sunny.5 mph73%29.93 "Hg10 mi
7:53 PM73 °FPartly sunny.5 mph69%29.92 "Hg10 mi
6:53 PM75 °FPartly sunny.7 mph62%29.92 "Hg10 mi
5:53 PM77 °FPartly sunny.8 mph60%29.92 "Hg10 mi
4:53 PM78 °FPartly sunny.12 mph52%29.93 "Hg10 mi
3:53 PM79 °FPartly sunny.12 mph52%29.95 "Hg10 mi
2:53 PM78 °FPartly sunny.10 mph56%29.96 "Hg10 mi
1:53 PM78 °FPartly sunny.10 mph56%29.98 "Hg10 mi
12:53 PM79 °FPartly sunny.12 mph54%29.99 "Hg10 mi
11:53 AM78 °FPartly sunny.7 mph56%30.00 "Hg10 mi
10:53 AM75 °FBroken clouds.6 mph62%30.01 "Hg10 mi
10:00 AM73 °FPartly sunny.6 mph65%30.01 "Hg10 mi
8:53 AM71 °FOvercast.No wind71%30.01 "Hg10 mi
7:53 AM69 °FOvercast.3 mph76%30.00 "Hg10 mi
6:53 AM68 °FPartly sunny.3 mph82%29.99 "Hg10 mi
5:53 AM68 °FPassing clouds.No wind82%29.98 "Hg10 mi
4:53 AM68 °FClear.No wind78%29.97 "Hg10 mi
3:53 AM69 °FClear.No wind79%29.96 "Hg10 mi
2:53 AM69 °FClear.No wind76%29.96 "Hg10 mi
1:53 AM70 °FClear.No wind73%29.97 "Hg10 mi
12:53 AM70 °FClear.No wind73%29.98 "Hg10 mi
11:53 PM
Jul 11
70 °FClear.No wind73%29.99 "Hg10 mi
Weather by CustomWeather, © 2014

See weather overviewHow to use our weather pages